| time (UTC) | temp F | wind direction | speed MPH | gust MPH | rain 1hr in | rain 24hr in | rain mn in | humidity % | barometer mb |
| 20260504044530 | 61 | 45 | 3.0 | 6.0 | 0.00 | 0.00 | 0.00 | 73 | 1011.0 |
| 20260504043038 | 61 | 66 | 0.0 | 6.0 | 0.00 | 0.00 | 0.00 | 73 | 1010.9 |
| 20260504041525 | 61 | 61 | 3.0 | 8.0 | 0.00 | 0.00 | 0.00 | 71 | 1010.8 |
| 20260504040026 | 61 | 47 | 3.0 | 7.0 | 0.00 | 0.00 | 0.00 | 71 | 1010.5 |
| 20260504034524 | 62 | 69 | 1.0 | 5.0 | 0.00 | 0.00 | 0.00 | 70 | 1010.7 |
| 20260504033028 | 61 | 68 | 3.0 | 9.0 | 0.00 | 0.00 | 0.00 | 70 | 1010.8 |
| 20260504031522 | 62 | 52 | 3.0 | 7.0 | 0.00 | 0.00 | 0.00 | 69 | 1010.5 |
| 20260504030021 | 62 | 42 | 5.0 | 8.0 | 0.00 | 0.00 | 0.00 | 70 | 1010.3 |
| 20260504024520 | 62 | 64 | 3.0 | 7.0 | 0.00 | 0.00 | 0.00 | 69 | 1010.2 |
| 20260504023024 | 62 | 75 | 2.0 | 7.0 | 0.00 | 0.00 | 0.00 | 69 | 1010.3 |
| 20260504021520 | 62 | 82 | 3.0 | 10.0 | 0.00 | 0.00 | 0.00 | 68 | 1010.4 |
| 20260504020019 | 62 | 38 | 6.0 | 8.0 | 0.00 | 0.00 | 0.00 | 67 | 1010.2 |
| 20260504014518 | 63 | 27 | 6.0 | 9.0 | 0.00 | 0.00 | 0.00 | 67 | 1010.1 |
| 20260504013020 | 63 | 41 | 6.0 | 12.0 | 0.00 | 0.00 | 0.00 | 66 | 1010.0 |
| 20260504011521 | 64 | 86 | 4.0 | 12.0 | 0.00 | 0.00 | 0.00 | 65 | 1009.7 |
| 20260504010016 | 64 | 54 | 7.0 | 12.0 | 0.00 | 0.00 | 0.00 | 64 | 1009.5 |
| 20260504004517 | 66 | 24 | 6.0 | 15.0 | 0.00 | 0.00 | 0.00 | 62 | 1009.2 |
| 20260504003016 | 66 | 30 | 7.0 | 13.0 | 0.00 | 0.00 | 0.00 | 60 | 1008.9 |
| 20260504001516 | 67 | 46 | 5.0 | 11.0 | 0.00 | 0.00 | 0.00 | 58 | 1008.6 |
| 20260504000015 | 67 | 70 | 6.0 | 11.0 | 0.00 | 0.00 | 0.00 | 58 | 1008.7 |
| 20260503234516 | 68 | 5 | 2.0 | 10.0 | 0.00 | 0.00 | 0.00 | 57 | 1008.6 |
| 20260503233012 | 68 | 57 | 1.0 | 8.0 | 0.00 | 0.00 | 0.00 | 58 | 1008.6 |
| 20260503231516 | 67 | 82 | 5.0 | 9.0 | 0.00 | 0.00 | 0.00 | 60 | 1008.9 |
| 20260503230010 | 67 | 11 | 6.0 | 11.0 | 0.00 | 0.00 | 0.00 | 60 | 1008.9 |
| 20260503224514 | 66 | 32 | 2.0 | 7.0 | 0.00 | 0.00 | 0.00 | 62 | 1009.1 |
| 20260503223010 | 66 | 32 | 4.0 | 11.0 | 0.00 | 0.00 | 0.00 | 62 | 1009.1 |
| 20260503221508 | 66 | 98 | 3.0 | 8.0 | 0.00 | 0.00 | 0.00 | 64 | 1009.2 |
| 20260503220007 | 66 | 74 | 5.0 | 8.0 | 0.00 | 0.00 | 0.00 | 64 | 1009.3 |
| 20260503214508 | 66 | 20 | 6.0 | 10.0 | 0.00 | 0.00 | 0.00 | 65 | 1009.5 |
| 20260503213006 | 66 | 68 | 4.0 | 9.0 | 0.00 | 0.00 | 0.00 | 65 | 1009.3 |
| 20260503211505 | 66 | 51 | 7.0 | 11.0 | 0.00 | 0.00 | 0.00 | 66 | 1009.6 |
| 20260503210005 | 66 | 53 | 3.0 | 7.0 | 0.00 | 0.00 | 0.00 | 66 | 1009.5 |
| 20260503204510 | 66 | 54 | 3.0 | 7.0 | 0.00 | 0.00 | 0.00 | 67 | 1009.5 |
| 20260503203004 | 66 | 59 | 4.0 | 7.0 | 0.00 | 0.00 | 0.00 | 67 | 1009.8 |
| 20260503201506 | 65 | 82 | 4.0 | 10.0 | 0.00 | 0.00 | 0.00 | 67 | 1009.8 |
| 20260503200005 | 65 | 102 | 5.0 | 13.0 | 0.00 | 0.00 | 0.00 | 67 | 1010.1 |
| 20260503194502 | 66 | 58 | 6.0 | 14.0 | 0.00 | 0.00 | 0.00 | 67 | 1010.0 |
| 20260503193001 | 67 | 54 | 7.0 | 15.0 | 0.00 | 0.00 | 0.00 | 65 | 1010.0 |
| 20260503191559 | 67 | 30 | 3.0 | 9.0 | 0.00 | 0.00 | 0.00 | 65 | 1009.9 |
| 20260503190059 | 67 | 11 | 1.0 | 6.0 | 0.00 | 0.00 | 0.00 | 66 | 1009.9 |
| 20260503184605 | 67 | 5 | 0.0 | 5.0 | 0.00 | 0.00 | 0.00 | 67 | 1009.9 |
| 20260503183057 | 66 | 88 | 0.0 | 5.0 | 0.00 | 0.00 | 0.00 | 69 | 1009.9 |
| 20260503181601 | 66 | 38 | 1.0 | 5.0 | 0.00 | 0.00 | 0.00 | 69 | 1010.1 |
| 20260503180105 | 66 | 5 | 1.0 | 5.0 | 0.00 | 0.00 | 0.00 | 70 | 1010.1 |
| 20260503174552 | 65 | 30 | 0.0 | 5.0 | 0.00 | 0.00 | 0.00 | 71 | 1010.3 |
| 20260503173059 | 64 | 350 | 0.0 | 4.0 | 0.00 | 0.00 | 0.00 | 73 | 1010.3 |
| 20260503171546 | 63 | 355 | 0.0 | 0.0 | 0.00 | 0.00 | 0.00 | 75 | 1010.3 |
| 20260503081600 | 60 | 344 | 0.0 | 2.0 | 0.00 | 0.00 | 0.00 | 87 | 1009.5 |
| 20260503071602 | 60 | 29 | 1.0 | 5.0 | 0.00 | 0.00 | 0.00 | 86 | 1010.0 |
| 20260503060110 | 60 | 46 | 4.0 | 7.0 | 0.00 | 0.00 | 0.00 | 85 | 1009.9 |